Вернуться в каталог

CZ-4 DEB

АктивенSSO
NORAD 26443·DEBRIS·🇨🇳 China

Запущен Oct 14, 1999 с Taiyuan Satellite Launch Center

Loading…

Ближайшие Пролёты (ближайшие 24 часа)

TLE

СвежийSource: Space-Track

Эпоха: Sep 14, 2026, 03:01 UTC

1 26443U 99057KQ  26257.12602294  .00000466  00000-0  14485-3 0  9998
2 26443  98.6130 318.9616 0092299 187.7644 202.5625 14.43354189386371

Отслеживайте CZ-4 DEB в реальном времени с AllMySat

Download on the App Store